Time,TemperatureF,DewpointF,PressureIn,WindDirection,WindDirectionDegrees,WindSpeedMPH,WindSpeedGustMPH,Humidity,HourlyPrecipIn,Conditions,Clouds,dailyrainin,SoftwareType,DateUTC
2013-04-19 00:07:00,50.3,48.0,30.11,SE,132,3.0,9.0,93,0.00,,,0.00,weatherlink.com 1.10,2013-04-19 04:07:00,
2013-04-19 00:22:00,50.5,49.0,30.10,SE,146,5.0,6.0,93,0.00,,,0.00,weatherlink.com 1.10,2013-04-19 04:22:00,
2013-04-19 00:37:00,50.5,49.0,30.10,SSW,201,0.0,5.0,94,0.00,,,0.00,weatherlink.com 1.10,2013-04-19 04:37:00,
2013-04-19 00:52:00,50.9,49.0,30.09,SE,130,3.0,5.0,94,0.00,,,0.00,weatherlink.com 1.10,2013-04-19 04:52:00,
2013-04-19 01:07:00,51.3,50.0,30.08,SE,130,7.0,7.0,95,0.00,,,0.00,weatherlink.com 1.10,2013-04-19 05:07:00,
2013-04-19 01:23:00,51.6,50.0,30.08,SSW,200,7.0,7.0,95,0.00,,,0.00,weatherlink.com 1.10,2013-04-19 05:23:00,
2013-04-19 01:38:00,51.9,51.0,30.07,South,178,4.0,9.0,95,0.00,,,0.00,weatherlink.com 1.10,2013-04-19 05:38:00,
2013-04-19 01:53:00,51.7,50.0,30.06,SSW,194,1.0,9.0,95,0.00,,,0.00,weatherlink.com 1.10,2013-04-19 05:53:00,
2013-04-19 02:08:00,52.1,51.0,30.05,SW,225,3.0,10.0,96,0.00,,,0.00,weatherlink.com 1.10,2013-04-19 06:08:00,
2013-04-19 02:23:00,52.2,51.0,30.05,South,182,2.0,10.0,96,0.00,,,0.00,weatherlink.com 1.10,2013-04-19 06:23:00,
2013-04-19 02:38:00,52.6,52.0,30.04,SSW,207,3.0,6.0,96,0.00,,,0.00,weatherlink.com 1.10,2013-04-19 06:38:00,
2013-04-19 02:53:00,53.3,52.0,30.04,South,182,4.0,14.0,96,0.00,,,0.00,weatherlink.com 1.10,2013-04-19 06:53:00,
2013-04-19 03:08:00,53.3,52.0,30.03,SSW,207,2.0,9.0,96,0.00,,,0.00,weatherlink.com 1.10,2013-04-19 07:08:00,
2013-04-19 03:23:00,53.4,52.0,30.02,SSW,195,2.0,9.0,96,0.00,,,0.00,weatherlink.com 1.10,2013-04-19 07:23:00,
2013-04-19 03:38:00,53.5,52.0,30.02,SSW,198,4.0,11.0,96,0.00,,,0.00,weatherlink.com 1.10,2013-04-19 07:38:00,
2013-04-19 03:53:00,53.5,52.0,30.01,SSE,161,3.0,11.0,96,0.00,,,0.00,weatherlink.com 1.10,2013-04-19 07:53:00,
2013-04-19 04:08:00,53.1,52.0,30.00,SE,138,1.0,7.0,96,0.00,,,0.00,weatherlink.com 1.10,2013-04-19 08:08:00,
2013-04-19 04:23:00,53.5,52.0,30.01,SSW,194,9.0,10.0,96,0.00,,,0.00,weatherlink.com 1.10,2013-04-19 08:23:00,
2013-04-19 04:38:00,53.4,52.0,30.01,SSE,163,6.0,8.0,96,0.00,,,0.00,weatherlink.com 1.10,2013-04-19 08:38:00,
2013-04-19 04:53:00,53.0,52.0,30.00,SW,224,1.0,7.0,96,0.00,,,0.00,weatherlink.com 1.10,2013-04-19 08:53:00,
2013-04-19 05:08:00,53.0,52.0,30.00,SSW,192,1.0,7.0,97,0.00,,,0.00,weatherlink.com 1.10,2013-04-19 09:08:00,
2013-04-19 05:23:00,52.8,52.0,30.00,SSW,197,2.0,7.0,96,0.00,,,0.00,weatherlink.com 1.10,2013-04-19 09:23:00,
2013-04-19 05:38:00,52.6,52.0,30.00,SW,228,0.0,7.0,97,0.00,,,0.00,weatherlink.com 1.10,2013-04-19 09:38:00,
2013-04-19 05:53:00,52.5,52.0,29.99,South,190,1.0,6.0,97,0.00,,,0.00,weatherlink.com 1.10,2013-04-19 09:53:00,
2013-04-19 06:08:00,52.4,52.0,30.00,South,188,0.0,6.0,97,0.00,,,0.00,weatherlink.com 1.10,2013-04-19 10:08:00,
2013-04-19 06:23:00,52.6,52.0,30.00,South,188,3.0,8.0,97,0.00,,,0.00,weatherlink.com 1.10,2013-04-19 10:23:00,
2013-04-19 06:38:00,52.9,52.0,29.99,SW,215,4.0,9.0,97,0.00,,,0.00,weatherlink.com 1.10,2013-04-19 10:38:00,
2013-04-19 06:53:00,53.4,53.0,29.99,SSW,200,1.0,12.0,97,0.00,,,0.00,weatherlink.com 1.10,2013-04-19 10:53:00,
2013-04-19 07:08:00,53.4,53.0,29.99,SSW,201,2.0,11.0,97,0.00,,,0.00,weatherlink.com 1.10,2013-04-19 11:08:00,
2013-04-19 07:23:00,54.0,53.0,30.00,SW,234,6.0,8.0,97,0.00,,,0.00,weatherlink.com 1.10,2013-04-19 11:23:00,
2013-04-19 07:38:00,54.3,54.0,29.99,SW,223,6.0,10.0,97,0.00,,,0.00,weatherlink.com 1.10,2013-04-19 11:38:00,
2013-04-19 07:53:00,54.9,54.0,29.99,South,182,2.0,5.0,97,0.00,,,0.00,weatherlink.com 1.10,2013-04-19 11:53:00,
2013-04-19 08:08:00,55.7,55.0,29.98,SW,222,1.0,8.0,97,0.00,,,0.00,weatherlink.com 1.10,2013-04-19 12:08:00,
2013-04-19 08:23:00,55.3,55.0,29.98,SW,215,7.0,11.0,97,0.00,,,0.00,weatherlink.com 1.10,2013-04-19 12:23:00,
2013-04-19 08:38:00,55.1,54.0,29.98,South,186,0.0,8.0,97,0.00,,,0.00,weatherlink.com 1.10,2013-04-19 12:38:00,
2013-04-19 08:53:00,55.3,55.0,29.98,SSW,205,4.0,11.0,97,0.00,,,0.00,weatherlink.com 1.10,2013-04-19 12:53:00,
2013-04-19 09:08:00,55.5,54.0,29.98,SW,230,3.0,11.0,96,0.00,,,0.00,weatherlink.com 1.10,2013-04-19 13:08:00,
2013-04-19 09:23:00,55.3,54.0,29.98,SSE,163,3.0,8.0,96,0.00,,,0.00,weatherlink.com 1.10,2013-04-19 13:23:00,
2013-04-19 09:38:00,55.3,54.0,29.96,South,178,0.0,16.0,96,0.00,,,0.00,weatherlink.com 1.10,2013-04-19 13:38:00,
2013-04-19 09:53:00,55.1,54.0,29.96,SSW,202,4.0,9.0,96,0.00,,,0.00,weatherlink.com 1.10,2013-04-19 13:53:00,
2013-04-19 10:08:00,56.6,56.0,29.96,SSW,212,2.0,10.0,96,0.00,,,0.00,weatherlink.com 1.10,2013-04-19 14:08:00,
2013-04-19 10:23:00,56.7,55.0,29.95,SSE,164,4.0,13.0,95,0.00,,,0.00,weatherlink.com 1.10,2013-04-19 14:23:00,
2013-04-19 10:38:00,57.3,56.0,29.95,South,182,6.0,10.0,94,0.00,,,0.00,weatherlink.com 1.10,2013-04-19 14:38:00,
2013-04-19 10:53:00,57.0,55.0,29.96,South,190,5.0,9.0,94,0.00,,,0.00,weatherlink.com 1.10,2013-04-19 14:53:00,
2013-04-19 11:08:00,56.6,55.0,29.95,SW,236,0.0,6.0,94,0.00,,,0.00,weatherlink.com 1.10,2013-04-19 15:08:00,
2013-04-19 11:23:00,56.5,55.0,29.95,South,175,4.0,11.0,93,0.00,,,0.00,weatherlink.com 1.10,2013-04-19 15:23:00,
2013-04-19 11:39:00,56.7,55.0,29.93,SSW,212,3.0,9.0,94,0.00,,,0.00,weatherlink.com 1.10,2013-04-19 15:39:00,
2013-04-19 11:54:00,58.6,57.0,29.93,South,175,2.0,9.0,94,0.00,,,0.00,weatherlink.com 1.10,2013-04-19 15:54:00,
2013-04-19 12:09:00,58.9,57.0,29.93,South,174,5.0,11.0,92,0.00,,,0.00,weatherlink.com 1.10,2013-04-19 16:09:00,
2013-04-19 12:24:00,57.1,55.0,29.92,SW,217,3.0,11.0,93,0.00,,,0.00,weatherlink.com 1.10,2013-04-19 16:24:00,
2013-04-19 12:39:00,57.8,56.0,29.91,South,190,3.0,8.0,95,0.00,,,0.00,weatherlink.com 1.10,2013-04-19 16:39:00,
2013-04-19 12:54:00,58.5,57.0,29.91,South,182,2.0,14.0,93,0.00,,,0.00,weatherlink.com 1.10,2013-04-19 16:54:00,
2013-04-19 13:09:00,58.9,57.0,29.90,SW,227,4.0,12.0,93,0.00,,,0.00,weatherlink.com 1.10,2013-04-19 17:09:00,
2013-04-19 13:24:00,59.8,58.0,29.89,SW,232,2.0,12.0,92,0.00,,,0.00,weatherlink.com 1.10,2013-04-19 17:24:00,
2013-04-19 13:39:00,60.7,58.0,29.88,South,184,5.0,19.0,91,0.00,,,0.00,weatherlink.com 1.10,2013-04-19 17:39:00,
2013-04-19 13:54:00,60.8,58.0,29.88,South,179,4.0,16.0,90,0.00,,,0.00,weatherlink.com 1.10,2013-04-19 17:54:00,
2013-04-19 14:09:00,62.5,59.0,29.87,SSW,208,3.0,12.0,89,0.00,,,0.00,weatherlink.com 1.10,2013-04-19 18:09:00,
2013-04-19 14:24:00,62.7,59.0,29.87,South,182,5.0,15.0,87,0.00,,,0.00,weatherlink.com 1.10,2013-04-19 18:24:00,
2013-04-19 14:39:00,60.8,58.0,29.86,SSW,195,3.0,14.0,90,0.00,,,0.00,weatherlink.com 1.10,2013-04-19 18:39:00,
2013-04-19 14:54:00,59.1,57.0,29.86,SSW,198,5.0,14.0,91,0.00,,,0.00,weatherlink.com 1.10,2013-04-19 18:54:00,
2013-04-19 15:09:00,57.8,56.0,29.85,South,191,7.0,22.0,93,0.00,,,0.00,weatherlink.com 1.10,2013-04-19 19:09:00,
2013-04-19 15:24:00,57.7,56.0,29.84,South,171,4.0,13.0,95,0.01,,,0.01,weatherlink.com 1.10,2013-04-19 19:24:00,
2013-04-19 15:39:00,57.3,56.0,29.83,SSW,209,5.0,9.0,95,0.01,,,0.01,weatherlink.com 1.10,2013-04-19 19:39:00,
2013-04-19 15:54:00,56.7,55.0,29.83,South,183,2.0,16.0,95,0.01,,,0.01,weatherlink.com 1.10,2013-04-19 19:54:00,
2013-04-19 16:09:00,56.3,55.0,29.81,SW,229,5.0,10.0,96,0.01,,,0.01,weatherlink.com 1.10,2013-04-19 20:09:00,
2013-04-19 16:24:00,56.3,55.0,29.81,South,173,8.0,13.0,96,0.01,,,0.02,weatherlink.com 1.10,2013-04-19 20:24:00,
2013-04-19 16:39:00,56.2,55.0,29.80,SSE,167,5.0,10.0,96,0.01,,,0.02,weatherlink.com 1.10,2013-04-19 20:39:00,
2013-04-19 16:54:00,56.2,55.0,29.79,SW,216,0.0,8.0,96,0.01,,,0.02,weatherlink.com 1.10,2013-04-19 20:54:00,
2013-04-19 17:09:00,56.3,56.0,29.79,SE,132,7.0,13.0,97,0.00,,,0.02,weatherlink.com 1.10,2013-04-19 21:09:00,
2013-04-19 17:24:00,56.1,55.0,29.78,SSW,192,1.0,15.0,97,0.00,,,0.02,weatherlink.com 1.10,2013-04-19 21:24:00,
2013-04-19 17:39:00,55.4,54.0,29.77,SSE,164,7.0,14.0,96,0.00,,,0.02,weatherlink.com 1.10,2013-04-19 21:39:00,
2013-04-19 17:54:00,55.2,54.0,29.77,SW,221,3.0,16.0,97,0.00,,,0.02,weatherlink.com 1.10,2013-04-19 21:54:00,
2013-04-19 18:09:00,54.8,54.0,29.76,SSW,196,7.0,14.0,97,0.00,,,0.02,weatherlink.com 1.10,2013-04-19 22:09:00,
2013-04-19 18:24:00,54.5,54.0,29.76,South,170,11.0,12.0,97,0.00,,,0.02,weatherlink.com 1.10,2013-04-19 22:24:00,
2013-04-19 18:39:00,54.7,54.0,29.75,SSW,202,4.0,15.0,97,0.00,,,0.02,weatherlink.com 1.10,2013-04-19 22:39:00,
2013-04-19 18:54:00,54.8,54.0,29.75,SSW,202,7.0,21.0,97,0.00,,,0.02,weatherlink.com 1.10,2013-04-19 22:54:00,
2013-04-19 19:09:00,54.8,54.0,29.75,SSW,213,6.0,14.0,97,0.00,,,0.02,weatherlink.com 1.10,2013-04-19 23:09:00,
2013-04-19 19:24:00,54.6,54.0,29.74,SSE,158,7.0,16.0,97,0.00,,,0.02,weatherlink.com 1.10,2013-04-19 23:24:00,
2013-04-19 19:40:00,54.7,54.0,29.74,ESE,102,3.0,10.0,97,0.00,,,0.02,weatherlink.com 1.10,2013-04-19 23:40:00,
2013-04-19 19:55:00,54.9,54.0,29.75,SSW,196,2.0,12.0,97,0.00,,,0.02,weatherlink.com 1.10,2013-04-19 23:55:00,
2013-04-19 20:10:00,55.1,54.0,29.75,South,174,3.0,11.0,97,0.00,,,0.02,weatherlink.com 1.10,2013-04-20 00:10:00,
2013-04-19 20:25:00,55.5,55.0,29.75,SSE,163,4.0,14.0,97,0.00,,,0.02,weatherlink.com 1.10,2013-04-20 00:25:00,
2013-04-19 20:40:00,56.3,56.0,29.74,SW,221,4.0,13.0,97,0.00,,,0.02,weatherlink.com 1.10,2013-04-20 00:40:00,
2013-04-19 20:55:00,57.0,56.0,29.74,SSW,211,5.0,13.0,97,0.00,,,0.02,weatherlink.com 1.10,2013-04-20 00:55:00,
2013-04-19 21:10:00,57.3,57.0,29.74,SSE,159,5.0,17.0,97,0.00,,,0.02,weatherlink.com 1.10,2013-04-20 01:10:00,
2013-04-19 21:25:00,57.5,57.0,29.74,South,178,1.0,17.0,97,0.00,,,0.02,weatherlink.com 1.10,2013-04-20 01:25:00,
2013-04-19 21:40:00,56.7,56.0,29.74,South,190,9.0,17.0,97,0.00,,,0.02,weatherlink.com 1.10,2013-04-20 01:40:00,
2013-04-19 21:55:00,56.4,56.0,29.73,SSE,159,7.0,20.0,97,0.00,,,0.02,weatherlink.com 1.10,2013-04-20 01:55:00,
2013-04-19 22:10:00,56.5,56.0,29.72,SSW,203,4.0,13.0,97,0.00,,,0.02,weatherlink.com 1.10,2013-04-20 02:10:00,
2013-04-19 22:25:00,56.4,56.0,29.71,South,178,9.0,15.0,97,0.00,,,0.02,weatherlink.com 1.10,2013-04-20 02:25:00,
2013-04-19 22:40:00,56.0,55.0,29.71,SW,221,6.0,15.0,97,0.00,,,0.02,weatherlink.com 1.10,2013-04-20 02:40:00,
2013-04-19 22:55:00,55.9,55.0,29.70,SW,227,4.0,14.0,97,0.00,,,0.02,weatherlink.com 1.10,2013-04-20 02:55:00,
2013-04-19 23:10:00,56.2,55.0,29.69,South,190,13.0,13.0,97,0.00,,,0.02,weatherlink.com 1.10,2013-04-20 03:10:00,
2013-04-19 23:25:00,56.3,56.0,29.69,South,187,6.0,16.0,97,0.00,,,0.02,weatherlink.com 1.10,2013-04-20 03:25:00,
2013-04-19 23:40:00,56.7,56.0,29.69,SW,230,7.0,19.0,97,0.00,,,0.02,weatherlink.com 1.10,2013-04-20 03:40:00,
2013-04-19 23:55:00,56.1,55.0,29.69,SSW,210,7.0,17.0,97,0.01,,,0.03,weatherlink.com 1.10,2013-04-20 03:55:00,